FENGYUN 1C DEB

Satellite information

Favourite Embed

Satellite Type and Status

DEBRISIN ORBIT

Key statistics

Satellite FENGYUN 1C DEB at a glance.

Uptime

9496

Days in orbit

Revolutions

≈ 14.8

Per day

Orbit

SSO

Sun Synchronous Orbit

Inclination

99.0

Latest

Satellite identification and parameters

Extended collection of information and parameters for FENGYUN 1C DEB.

Object identification

Identified? True

Debris? True

Object name: FENGYUN 1C DEB

International designator: 1999-025DA

Object number (NORAD): 29808

Object ID (CCSDS): 29808

Country: PEOPLES REPUBLIC OF CHINA (PRC)

Current information (Y/N): Y

RCS size: SMALL

Orbital parameters

Period: 97.411 minutes

Inclination: 99.0388 deg

SMA: 7012.923 km

Apoapsis: 647.13 km

Periapsis: 622.445 km

RAAN: 15.9823 deg

Eccentricy: 0.00176

Argument of periapsis: 85.7386 deg

Mean anomaly: 327.6821 deg

Mean motion: 14.78271469 rev/day

Mean motion (dot): 0.00034494 rev/day2

B* drag term: 0.0047236 1/REarth

Two-line elements (TLE)

Creation date: May 9, 2025, 2:46 a.m.

Reference frame: TEME

Reference center: EARTH

Epoch: May 8, 2025, 4:01 p.m. UTC

TLE line 0: 0 FENGYUN 1C DEB

TLE line 1: 1 29808U 99025DA 25128.66784175 .00034494 00000-0 47236-2 0 9992

TLE line 2: 2 29808 99.0388 15.9823 0017600 85.7386 327.6821 14.78271469949779

Live tracking on map

Real-time ground track for satellite FENGYUN 1C DEB.

In-orbit conjunctions

A list of the most updated potential collisions computed for object FENGYUN 1C DEB.

Target Orbit TCA Probability of collision Miss distance Type
CZ-6A DEB SSO 2024-11-15 11:09:51 0.0001774546 183.0 (m) DEBRIS
CZ-6A DEB SSO 2024-09-26 02:02:23 0.0001982832 340.0 (m) DEBRIS

Associated space launch

Chinese polar orbiting meteorological satellite

FENGYUN 1C DEB was lifted into orbit during the mission ‘Long March 4B | Feng Yun 1C’, on board a Long March 4B space rocket.

The launch took place on May 10, 1999, 1:33 a.m. from Launch Complex 7.

For more information about the launch, click the button.

Launch to space Long March 4B | Feng Yun 1C
Long March 4B | Feng Yun 1C

Agency: N/A

Status: Launch Successful

Launch date: May 10, 1999, 1:33 a.m. UTC

Rocket: Long March 4B

Launch pad: Launch Complex 7

Location: Taiyuan Satellite Launch Center, People's Republic of China

...

Latest news about this satellite

There are no fresh news available about this satellite. Check back as we update our databases every day.


Newsletter sign-up

Weekly statistics, charts and insights to help you stay on top of the space industry.